Location: Clatteringshaws Loch
(55.0508°N, 4.2860°W)
Time: 18:57:10
(UTC+01:00)

Daily predictions for brighter satellites

Satellite Brightness Start Highest point End
(mag) Time Altitude Azimuth Time Altitude Azimuth Time Altitude Azimuth
CENTAUR R/B 3.4 21:15:40 10° WSW 21:22:09 63° NNW 21:29:36 10° NE
ATLAS 5 CENTAUR R/B 3.3 21:17:03 10° WNW 21:22:32 44° SW 21:28:31 10° SSE
Cosmos 1844 4.1 21:17:00 10° NNW 21:22:39 57° NE 21:28:11 10° SE
Meteor 1-14 Rocket 4.3 21:19:33 10° N 21:25:13 70° ENE 21:30:58 10° SSE
Cosmos 2279 Rocket 4.0 21:19:17 10° S 21:25:31 81° E 21:31:46 10° NNE
Envisat 3.5 21:20:54 10° S 21:25:56 66° WSW 21:31:02 10° NNW
Meteor 1-25 Rocket 4.4 21:21:31 10° N 21:27:04 57° ENE 21:32:31 10° SSE
Cosmos 1825 4.2 21:25:49 10° NNW 21:29:11 31° W 21:32:34 10° SSW
NOAA 11 4.4 21:25:07 10° SE 21:30:31 61° ENE 21:35:56 10° N
H-2A R/B 2.9 21:27:23 10° ESE 21:31:47 33° ENE 21:36:10 10° N
Lacrosse 4 Rocket 4.2 21:31:30 10° WNW 21:33:31 13° WSW 21:35:34 10° SW
Cosmos 2322 4.2 21:28:42 10° S 21:33:57 39° ESE 21:39:13 10° NE
Helios 1B rocket 2.4 21:29:49 10° NNE 21:33:58 80° ESE 21:38:04 10° SSW
USA 186 4.3 21:33:40 10° SW 21:36:00 21° W 21:38:27 10° NW
Meteor 1-20 Rocket 4.4 21:31:47 10° N 21:37:18 60° ENE 21:42:53 10° SSE
Meteor 1-29 2.9 21:34:26 10° NNE 21:37:58 76° ESE 21:41:25 10° S
Cosmos 2242 Rocket 4.4 21:34:27 10° SSW 21:38:52 58° WNW 21:43:17 10° N
ARGOS 3.4 21:33:47 10° SE 21:39:00 56° ENE 21:44:17 10° N
SL-16 R/B 2.3 21:33:39 10° SSW 21:39:21 88° WNW 21:45:05 10° NNE
Abrixas rocket 3.5 21:38:56 10° WSW 21:41:43 25° S 21:44:24 11° SE
USA 229 DEB 4.2 21:39:22 10° S 21:45:33 38° ESE 21:51:52 10° NE
USA 229 4.2 21:39:30 10° S 21:45:40 37° ESE 21:51:58 10° NE
Cosmos 2221 Rocket 4.1 21:41:34 10° SSE 21:45:42 40° E 21:49:53 10° NNE
YAOGAN 11 4.1 21:41:32 10° SSE 21:45:51 69° ENE 21:50:09 10° NNW
GENESIS II 4.2 21:44:20 10° SW 21:48:24 79° SE 21:52:28 10° NE
CZ-4C R/B 2.9 21:42:01 10° NW 21:48:42 76° NE 21:56:17 10° ESE
ERS-1 Rocket 3.1 21:43:46 10° SSE 21:48:48 78° WSW 21:53:52 10° NNW
SeaSat 1 2.5 21:45:43 10° SE 21:50:38 75° NE 21:55:36 10° NNW
Cosmos 1844 Rocket 2.7 21:46:25 10° NW 21:52:02 85° WSW 21:57:38 10° SSE
Cosmos 2278 Rocket 2.6 21:47:12 10° NNW 21:52:47 55° NE 21:58:04 11° SE
Cosmos 2237 Rocket 3.9 21:53:21 10° ESE 21:55:50 13° E 21:58:28 10° ENE
Cosmos 2333 Rocket 3.6 21:54:22 10° SE 21:58:07 19° E 22:01:58 10° ENE
Cosmos 1606 3.9 21:56:54 12° SE 21:59:37 25° E 22:02:45 10° NNE
Resurs 01 Rocket 4.4 21:58:30 10° WSW 22:01:04 15° W 22:03:38 10° NW
USA 267 3.2 21:56:46 10° ENE 22:03:20 73° SSE 22:09:53 10° WSW
H-2A R/B 2.9 22:02:33 13° SE 22:06:02 37° ENE 22:10:07 10° N
MetOp-A 4.3 22:01:14 10° SSE 22:06:35 77° WSW 22:12:00 10° NNW
SPOT 5 2.7 22:02:29 10° SSE 22:07:13 88° ENE 22:11:46 10° NNW
Cosmos 1536 4.3 22:04:17 10° N 22:07:37 23° ENE 22:10:18 13° ESE
Iridium 4 Rocket 4.4 22:04:43 10° NNE 22:08:06 23° ENE 22:10:42 14° ESE
Cosmos 1898 Rocket 4.1 22:05:59 10° NNW 22:11:00 47° NE 22:15:14 14° SE
SL-08 RB Rocket 3.7 22:06:54 11° SSE 22:11:15 76° ENE 22:15:48 10° NNW
Meteor 2-10 Rocket 4.0 22:09:38 10° SSW 22:15:28 77° WNW 22:21:13 10° NNE
ATLAS 3B R/B 3.5 22:11:45 10° NW 22:18:38 49° NNE 22:25:09 10° E
SPOT 1/Viking Rocket 3.6 22:14:40 12° SSE 22:19:32 83° ENE 22:24:47 10° NNW
Cosmos 1782 Rocket 4.3 22:15:25 10° NNW 22:19:40 52° W 22:23:56 10° S
YAOGAN 6 4.3 22:16:39 10° SSW 22:19:53 30° W 22:23:07 10° NNW
Cosmos 2219 Rocket 3.0 22:15:17 10° SSE 22:20:05 30° ESE 22:24:56 10° NE
ASTEX 1 4.0 22:16:56 15° SE 22:20:43 42° ENE 22:25:24 10° N
Cosmos 1300 Rocket 4.2 22:17:11 10° N 22:21:19 40° ENE 22:24:16 17° SE
Okean 2 Rocket 3.8 22:29:43 10° NNW 22:34:08 52° W 22:38:31 10° S
USA 245 4.3 22:29:11 10° S 22:34:33 61° WSW 22:38:55 10° NNW
Okean 1-7 3.1 22:31:52 10° SSW 22:36:16 81° WNW 22:40:43 10° N
Landsat 7 3.8 22:32:49 17° SSE 22:36:28 79° ENE 22:41:15 10° NNW
USA 238 DEB 4.5 22:35:16 10° NW 22:42:09 52° NNE 22:49:05 10° E
USA 238 4.5 22:35:22 10° NW 22:42:15 52° NNE 22:49:10 10° E
Meteor 1-27 Rocket 4.1 22:39:29 17° SSE 22:43:29 45° E 22:48:45 10° NNE
MOS 1-B Rocket 4.3 22:38:03 10° S 22:43:44 59° WSW 22:49:17 10° NNW
Cosmos 1745 Rocket 4.1 22:37:42 10° N 22:44:02 69° ENE 22:48:49 19° SSE
Cosmos 2084 4.1 22:41:50 10° WNW 22:45:24 38° SW 22:47:32 20° S
Cosmos 1782 2.8 22:43:32 12° S 22:47:14 87° E 22:51:16 10° NNE
Cosmos 2369 Rocket 4.0 22:42:50 10° NNW 22:47:24 25° NNE 22:51:58 10° E
Cosmos 2297 3.9 22:43:00 10° NNW 22:48:45 65° NE 22:52:43 20° SE
Terra 1.8 22:48:23 21° SSE 22:51:35 78° ENE 22:56:23 10° NNW
Cosmos 2237 4.2 22:46:56 10° SSW 22:52:41 88° ESE 22:58:28 10° NE
Cosmos 2322 Rocket 3.8 22:48:01 10° WSW 22:53:13 37° NW 22:58:28 10° NNE
Cosmos 2292 Rocket 3.8 22:50:55 10° N 22:53:39 29° ENE 22:54:28 25° ESE
Cosmos 1633 2.8 22:50:24 10° NNW 22:54:03 65° W 22:56:22 21° S
Cosmos 1602 3.7 22:50:56 10° NNW 22:54:48 81° W 22:57:05 23° S
Cosmos 1943 Rocket 4.3 22:51:24 10° NNW 22:55:40 21° NNE 22:59:55 10° ENE
CZ-4B R/B 4.3 22:52:20 10° NE 22:56:29 29° E 22:58:17 23° SE
deb Chang Zheng 4 4.0 22:56:05 10° NNE 23:00:18 43° E 23:02:20 26° SSE
Cosmos 2360 Rocket 2.8 22:55:01 10° SW 23:00:37 60° NW 23:06:16 10° NNE
COSMOS 2428 2.7 22:56:21 10° SSW 23:02:03 83° ESE 23:07:49 10° NE
Cosmos 1346 Rocket 2.9 23:00:03 26° SSE 23:02:05 57° E 23:06:02 10° NNE
Meteor 1-11 Rocket 3.7 22:56:36 10° NNW 23:02:10 78° WSW 23:06:07 20° S
Timation 1 Rocket 4.4 22:58:47 10° NW 23:04:48 73° WSW 23:08:37 23° SSE
Meteor 1-10 Rocket 4.3 22:59:18 10° SSW 23:05:13 87° WNW 23:11:05 10° NNE
MINOTAUR R/B 4.3 23:02:37 10° NNW 23:05:32 85° ENE 23:06:17 46° SE
Spot 4 3.9 23:05:03 25° SE 23:07:45 66° ENE 23:12:30 10° NNW
Cosmos 2151 Rocket 4.4 23:04:11 10° NNW 23:08:28 47° W 23:11:45 16° SSW
NOSS 0 Rocket 4.2 23:04:36 16° S 23:09:11 47° ESE 23:15:03 10° NE
Okean 3 4.1 23:08:48 28° SE 23:10:12 37° E 23:14:05 10° NNE
Cosmos 2298 Rocket 4.0 23:05:24 10° NNW 23:10:47 83° WSW 23:13:54 26° SSE
H-2A R/B 2.7 23:07:17 16° S 23:11:07 48° W 23:15:54 10° NNW
Cosmos 1980 4.0 23:08:16 21° S 23:11:42 45° ESE 23:17:04 10° NE
CENTAUR R/B 4.0 23:07:26 10° WNW 23:14:02 44° N 23:21:30 10° ENE
CARTOSAT-1 3.7 23:11:33 24° S 23:14:03 69° WSW 23:18:24 10° NNW
CZ-4 R/B 4.2 23:10:51 10° NNE 23:15:29 46° E 23:17:39 28° SSE
ATLAS CENTAUR R/B 3.5 23:17:38 13° E 23:17:38 13° E 23:18:29 10° E
Cosmos 1812 4.3 23:15:52 19° E 23:16:25 20° E 23:19:17 10° NE
DMSP B5D2-2 4.1 23:11:26 10° NNE 23:16:44 72° ESE 23:20:22 21° S
Abrixas rocket 4.3 23:15:43 10° WSW 23:17:05 15° SW 23:17:05 15° SW
SL-16 R/B 3.4 23:16:46 22° ESE 23:18:06 24° ESE 23:22:34 10° NE
USA 129 3.2 23:17:00 10° N 23:18:45 30° WNW 23:18:58 29° W
PSLV R/B 3.5 23:21:36 39° SSW 23:22:16 51° W 23:25:02 10° NNW
Cosmos 1975 4.1 23:18:55 10° N 23:22:26 28° ENE 23:23:53 22° ESE
IGS 5A 3.8 23:21:23 26° S 23:23:34 59° WSW 23:27:42 10° NNW
Okean 1 Rocket 3.1 23:19:36 10° NNW 23:24:03 77° W 23:26:18 29° S
SL-16 R/B 4.3 23:19:19 10° W 23:24:13 29° NNW 23:29:08 10° NNE
SL-19 R/B 4.4 23:18:53 10° NNE 23:25:03 70° ESE 23:29:01 22° S
Cosmos 1455 Rocket 4.1 23:22:36 10° N 23:26:43 34° ENE 23:28:34 24° ESE
Cosmos 1570 Rocket 4.0 23:21:47 12° SSW 23:26:46 87° ESE 23:32:07 10° NNE
Cosmos 1937 Rocket 3.6 23:23:17 10° NNW 23:28:35 72° WSW 23:31:15 29° SSE
SeaSat 1 4.1 23:25:23 14° SSW 23:28:38 25° WSW 23:32:41 10° NW
NOSS 3-1 (C) 3.5 23:23:48 10° SSW 23:29:41 63° SE 23:36:25 10° NE
Cosmos 1674 Rocket 3.5 23:29:22 25° SSW 23:31:49 85° WNW 23:36:11 10° N
Cosmos 1553 Rocket 4.0 23:27:55 16° SSW 23:33:04 82° W 23:39:18 10° N
Cosmos 1606 4.0 23:31:57 11° SW 23:35:17 37° WNW 23:38:50 10° N
USA 229 DEB 3.9 23:29:13 10° WSW 23:36:07 78° NW 23:43:13 10° NE
USA 229 3.9 23:29:19 10° SW 23:36:14 79° NW 23:43:19 10° NE
Cosmos 2278 Rocket 3.2 23:31:33 10° NW 23:36:45 38° WSW 23:39:55 21° SSW
Cosmos 2208 Rocket 4.0 23:32:13 13° SSW 23:37:08 87° WNW 23:42:28 10° NNE
CZ-4C R/B 3.5 23:30:41 10° NW 23:37:09 42° WSW 23:41:28 23° S
Cosmos 990 Rocket 4.0 23:32:34 10° NNW 23:37:43 72° WSW 23:40:09 31° S
CZ-2C R/B 4.2 23:34:01 10° NE 23:38:10 21° E 23:39:51 19° ESE
Cosmos 2237 Rocket 2.2 23:35:06 22° S 23:38:47 63° ESE 23:44:26 10° NE
Cosmos 2315 Rocket 4.3 23:37:16 28° SSE 23:40:19 51° E 23:46:20 10° NNE
Aureole 2 Rocket 1.8 23:40:51 71° ENE 23:40:51 71° ENE 23:43:27 10° NNE
DELTA 2 DEB (DPAF) 4.2 23:38:56 33° S 23:40:55 72° WSW 23:45:26 10° NNW
Cosmos 2333 Rocket 2.2 23:36:16 13° SSW 23:41:33 81° ESE 23:47:22 10° NE
H-2A R/B 3.3 23:39:40 20° SSW 23:42:05 34° W 23:46:08 10° NNW
Cosmos 1536 3.5 23:40:25 10° NNW 23:44:19 47° W 23:46:03 28° SSW
Cosmos 2150 Rocket 4.5 23:39:39 10° NNW 23:44:58 55° WSW 23:47:39 28° S
NOSS 3-1 (A) 3.5 23:40:46 12° SSW 23:46:17 62° SE 23:53:00 10° NE
USA 267 3.4 23:39:55 10° ENE 23:46:28 78° N 23:53:02 10° W
Iridium 4 Rocket 3.7 23:44:21 10° NNW 23:48:22 46° W 23:50:29 24° SSW
ATLAS 2AS CENTAUR R/B 3.9 23:46:02 25° SE 23:48:23 29° ESE 23:54:59 10° ENE
CZ-4B R/B 4.0 23:49:24 10° E 23:50:43 12° ENE 23:52:03 10° NNE
Cosmos 332 Rocket 4.3 23:49:46 35° SE 23:50:56 41° ESE 23:55:28 10° NE
Cosmos 1898 Rocket 4.5 23:48:16 10° NW 23:53:01 37° WSW 23:55:32 23° SSW
COSMOS 2455 4.4 23:48:06 10° NW 23:53:32 33° NNE 23:58:57 10° E
Cosmos 1340 3.1 23:55:34 42° ESE 23:55:59 44° E 23:59:38 10° NNE
